Home   Weather   Banja Luka   Past weeks

Flag for Bosnia-Herzegovina Past Weather in Banja Luka, Bosnia-Herzegovina — Yesterday and Last 2 Weeks

Now
42 °F

Sunny.


Feels Like: 42 °F
Forecast: 41 / 71 °F
Wind: No wind

Location: Banja Luka

Current Time: Sep 27, 2016 at 9:04:27 AM

Latest Report: Sep 27, 2016 at 8:00 AM


Visibility: 13 mi

Pressure: 30.29 "Hg

Humidity: 93%

Dew Point: 40 °F

Location of Banja LukaLocation

Past Weather in Banja Luka — Graph

°F

Banja Luka Temperature Yesterday

Maximum temperature yesterday: 71 °F (at 4:00 PM)
Minimum temperature yesterday: 45 °F (at 7:00 AM)
Average temperature yesterday: 57 °F

High & Low Weather Summary for the Past Weeks

 TemperatureHumidityPressure
High89 °F (Sep 16, 3:00 PM)97% (Sep 23, 8:00 AM)30.38 "Hg (Sep 23, 8:00 AM)
Low41 °F (Sep 27, 7:00 AM)31% (Sep 17, 3:00 PM)29.69 "Hg (Sep 23, 6:00 PM)
Average64 °F72%30.04 "Hg
* Reported Sep 12 7:00 AM — Sep 27 7:00 AM, Banja Luka, Weather by CustomWeather, © 2016

Note: Actual official high and low records may vary slightly from our data, if they occured in-between our weather recording intervals... More about our weather records

Advertising

Banja Luka Weather History for the Previous 24 Hours

Scroll right to see more
 ConditionsComfort  
Time TempWeatherWind HumidityBarometerVisibility
7:00 AM
Tue, Sep 27
41 °FSunny.No wind93%30.28 "Hg12 mi
6:00 AM42 °FClear.No wind93%30.26 "Hg6 mi
5:00 AM42 °FClear.No wind93%30.26 "Hg6 mi
2:00 AM45 °FClear.No wind92%30.25 "Hg6 mi
11:00 PM
Mon, Sep 26
51 °FClear.No wind88%30.23 "Hg6 mi
10:00 PM52 °FClear.1 mph84%30.22 "Hg6 mi
8:00 PM58 °FClear.No wind80%30.20 "Hg12 mi
7:00 PM62 °FPassing clouds.No wind66%30.18 "Hg12 mi
6:00 PM67 °FPassing clouds.1 mph46%30.16 "Hg12 mi
4:00 PM71 °FPassing clouds.1 mph48%30.16 "Hg12 mi
3:00 PM71 °FPassing clouds.3 mph62%30.15 "Hg16 mi
2:00 PM68 °FPassing clouds.1 mph54%30.16 "Hg12 mi
1:00 PM65 °FScattered clouds.1 mph59%30.18 "Hg12 mi
12:00 PM61 °FPartly sunny.1 mph68%30.19 "Hg6 mi
11:00 AM59 °FFog.1 mph72%30.19 "Hg6 mi
10:00 AM55 °FFog.1 mph79%30.19 "Hg6 mi
9:00 AM50 °FOvercast.1 mph93%30.19 "Hg9 mi
Weather by CustomWeather, © 2016

See weather overviewHow to use our weather pages